Weather History for Mobile, AL

Change the Weather History Date:

Sunday, March 9, 2014

  Actual Average Record
Temperature  
Mean Temperature 62 °F 59 °F  
Max Temperature 74 °F 70 °F 84 °F (1951)
Min Temperature 49 °F 48 °F 22 °F (1996)
Degree Days  
Heating Degree Days 3 7  
Month to date heating degree days 118 71  
Since 1 July heating degree days 1825 1513  
Cooling Degree Days 0 1  
Month to date cooling degree days 0 9  
Year to date cooling degree days 7 25  
Growing Degree Days 10 (Base 50)    
Moisture  
Dew Point 52 °F    
Average Humidity 71    
Maximum Humidity 100    
Minimum Humidity 41    
Precipitation  
Precipitation 0.00 in 0.19 in 3.49 in (1880)
Month to date precipitation 0.81 1.81  
Year to date precipitation 7.93 12.58  
Snow  
Snow 0.00 in 0.00 in - ()
Month to date snowfall 0.0 0.0  
Since 1 July snowfall 1.3 0.1  
Snow Depth 0.00 in    
Sea Level Pressure  
Sea Level Pressure 30.18 in    
Wind  
Wind Speed 4 mph (West)    
Max Wind Speed 13 mph    
Max Gust Speed 17 mph    
Visibility 9 miles    
Events      
T = Trace of Precipitation, MM = Missing Value Source: NWS Daily Summary

Daily Weather History Graph

Daily Weather History Graph

Search for Another Location

Airport:

Trip Planner

Search our weather history database for the weather conditions in past years. The results will help you decide how hot, cold, wet, or windy it might be!

Date:

Astronomy

Mar. 09, 2014 Rise Set
Actual Time 7:10 AM CDT 6:57 PM CDT
Civil Twilight 6:46 AM CDT 7:21 PM CDT
Nautical Twilight 6:18 AM CDT 7:49 PM CDT
Astronomical Twilight 5:50 AM CDT 8:17 PM CDT
Moon 1:06 PM CDT (3/9) 3:18 AM CDT (3/9)
Length of Visible Light 12h 35m
Length of Day
11h 47m
First Quarter, 61% of the Moon is Illuminated
Mar 9
First Quarter
Mar 16
Full
Mar 23
Last Quarter
Mar 30
New
Apr 7
First Quarter

Hourly Weather History & Observations

Time (CDT) Temp. Dew Point Humidity Pressure Visibility Wind Dir Wind Speed Gust Speed Precip Events Conditions
12:56 AM 53.1 °F 53.1 °F 100% 30.17 in 10.0 mi ESE 5.8 mph - N/A   Clear
1:56 AM 53.1 °F 52.0 °F 96% 30.17 in 10.0 mi Calm Calm - N/A   Clear
3:56 AM 52.0 °F 52.0 °F 100% 30.17 in 10.0 mi Calm Calm - N/A   Clear
4:56 AM 50.0 °F 50.0 °F 100% 30.17 in 6.0 mi NW 3.5 mph - N/A   Clear
5:56 AM 50.0 °F 50.0 °F 100% 30.19 in 6.0 mi Calm Calm - N/A   Mostly Cloudy
6:56 AM 51.1 °F 50.0 °F 96% 30.19 in 6.0 mi Calm Calm - N/A   Mostly Cloudy
7:56 AM 51.1 °F 51.1 °F 100% 30.20 in 5.0 mi Calm Calm - N/A   Scattered Clouds
8:56 AM 57.9 °F 55.0 °F 90% 30.21 in 6.0 mi Calm Calm - N/A   Scattered Clouds
9:56 AM 62.1 °F 53.1 °F 72% 30.24 in 10.0 mi SSW 5.8 mph - N/A   Scattered Clouds
10:56 AM 64.9 °F 53.1 °F 65% 30.25 in 10.0 mi Variable 4.6 mph - N/A   Scattered Clouds
11:56 AM 69.1 °F 53.1 °F 57% 30.23 in 10.0 mi Calm Calm - N/A   Scattered Clouds
12:56 PM 70.0 °F 52.0 °F 53% 30.21 in 10.0 mi SSW 3.5 mph - N/A   Mostly Cloudy
1:56 PM 70.0 °F 50.0 °F 49% 30.19 in 10.0 mi NW 4.6 mph - N/A   Mostly Cloudy
2:56 PM 72.0 °F 48.0 °F 43% 30.15 in 10.0 mi WNW 8.1 mph - N/A   Scattered Clouds
3:56 PM 71.1 °F 51.1 °F 49% 30.14 in 10.0 mi NNW 12.7 mph - N/A   Mostly Cloudy
4:56 PM 73.0 °F 48.9 °F 42% 30.14 in 10.0 mi WNW 9.2 mph - N/A   Scattered Clouds
5:56 PM 72.0 °F 48.9 °F 44% 30.13 in 10.0 mi NW 5.8 mph - N/A   Scattered Clouds
6:56 PM 64.9 °F 54.0 °F 68% 30.12 in 10.0 mi SSW 9.2 mph - N/A   Partly Cloudy
7:56 PM 61.0 °F 53.1 °F 75% 30.15 in 10.0 mi SSW 9.2 mph - N/A   Partly Cloudy
8:56 PM 59.0 °F 52.0 °F 78% 30.18 in 10.0 mi SW 6.9 mph - N/A   Clear
9:56 PM 57.9 °F 52.0 °F 81% 30.19 in 10.0 mi West 4.6 mph - N/A   Clear
10:56 PM 57.0 °F 52.0 °F 83% 30.18 in 10.0 mi WSW 3.5 mph - N/A   Clear
11:56 PM 55.0 °F 52.0 °F 89% 30.17 in 10.0 mi Calm Calm - N/A   Clear
12:56 AM 54.0 °F 52.0 °F 93% 30.16 in 10.0 mi West 3.5 mph - N/A   Clear